www.pogodaiklimat.ru

Погода и климат >> Архив погоды >> Канада >> Baker Lake Climate


ПОГОДА в Baker Lake Climate

  • Прогноз погоды в Baker Lake Climate
  • Монитор погоды в Baker Lake Climate
  • Климат города

АРХИВ ПОГОДЫ в Baker Lake Climate

Время (UTC), дата Ветер
(напр.,м/с)
 
Видим.   Явления Облачность Т
(С)
Тd
(С)
f
(%)
Тe
(С)
Тes
(С)
Комфортность P
(гПа)
Po
(гПа)
Тmin
(С)
Tmax
(С)
R
(мм)
R24
(мм)
S
(см)
06 23.04 СЗ 6 н/о н/о -26.1 -29.6 72 -39 -39 опасность
обморожения
1028.2 1021.2 -26.1 -19.2 7
09 23.04 СЗ 7 н/о н/о -27.8 -31.2 73 -42 -42 опасность
обморожения
1027.7 1020.7
12 23.04 СЗ 9 н/о н/о -27.2 -31.0 70 -42 -42 опасность
обморожения
1028.1 1021.1 -28.5 -19.2 1
15 23.04 СЗ 10 н/о н/о -23.5 -27.0 73 -38 -38 опасность
обморожения
1028.0 1021.0
18 23.04 СЗ 8 н/о н/о -20.3 -24.3 70 -33 -33 опасность
обморожения
1028.9 1021.9 -28.5 -20.3
21 23.04 СЗ 7 н/о н/о -18.3 -22.2 71 -30 -30 1029.4 1022.4
00 24.04 СЗ 6 н/о н/о -18.3 -21.8 74 -29 -29 1029.8 1022.8 -28.5 -17.6
03 24.04 СЗ 8 н/о н/о -19.1 -22.0 78 -31 -31 опасность
обморожения
1029.4 1022.4
06 24.04 СЗ 10 н/о н/о -18.6 -21.6 77 -32 -32 опасность
обморожения
1029.4 1022.5 -28.5 -17.6 17
09 24.04 СЗ 8 н/о н/о -22.1 -25.1 77 -35 -35 опасность
обморожения
1030.0 1023.0
12 24.04 СЗ 7 н/о н/о -22.5 -25.7 75 -35 -35 опасность
обморожения
1030.5 1023.5 -23.4 -17.6 1
15 24.04 СЗ 6 н/о н/о -20.8 -24.2 74 -32 -32 опасность
обморожения
1031.2 1024.2
18 24.04 СЗ 6 н/о н/о -19.7 -24.2 67 -30 -30 1031.1 1024.2 -23.4 -18.5
21 24.04 З 4 н/о н/о -18.2 -22.0 72 -27 -27 1030.8 1023.8
00 25.04 З 5 н/о н/о -17.5 -21.4 72 -27 -27 1030.0 1023.0 -23.4 -17.2
03 25.04 ЮЗ 3 н/о н/о -20.3 -23.5 76 -27 -27 1029.5 1022.5
06 25.04 Ю 5 н/о н/о -18.6 -21.1 81 -28 -28 1029.3 1022.4 -23.4 -17.2 10
09 25.04 Ю 3 н/о н/о -21.6 -24.7 76 -30 -30 1028.8 1021.9
12 25.04 Ю 2 н/о н/о -24.6 -27.7 75 -30 -30 1028.3 1021.3 -24.6 -17.2 1
15 25.04 ЮВ 4 н/о н/о -23.5 -26.9 74 -33 -33 опасность
обморожения
1027.0 1020.0
18 25.04 Ю 5 н/о н/о -19.8 -23.7 71 -29 -29 1025.3 1018.4 -25.1 -18.5
21 25.04 Ю 6 н/о н/о -16.2 -20.0 72 -26 -26 1023.7 1016.8
00 26.04 ЮВ 3 н/о н/о -15.1 -18.6 75 -21 -21 1021.4 1014.5 -25.1 -14.8
03 26.04 ЮВ 4 н/о н/о -16.2 -19.2 78 -24 -24 1019.9 1013.0
06 26.04 В 5 н/о н/о -19.3 -21.7 81 -29 -29 1017.2 1010.3 -25.1 -14.8
09 26.04 В 4 н/о н/о -20.0 -22.5 80 -29 -29 1014.5 1007.7
12 26.04 В 7 н/о н/о -18.5 -21.2 79 -30 -30 1011.4 1004.6 -20.5 -14.8 1
15 26.04 В 3 н/о н/о -12.8 -15.8 78 -19 -19 1009.9 1003.2
18 26.04 Ю 1 н/о н/о -6.1 -11.4 66 -8 -8 1009.3 1002.6 -20.5 -5.7
21 26.04 З 6 н/о н/о -6.7 -10.4 75 -15 -15 1010.6 1003.9
00 27.04 З 5 н/о н/о -10.6 -13.6 79 -19 -19 1012.5 1005.8 -20.5 -5.6
03 27.04 З 6 н/о н/о -14.2 -16.6 82 -24 -24 1014.1 1007.4
06 27.04 З 3 н/о н/о -17.0 -19.3 82 -24 -24 1015.7 1009.0 -20.5 -5.6 23
09 27.04 СЗ 6 н/о н/о -19.5 -21.9 81 -30 -30 1017.2 1010.4
12 27.04 ЮВ 2 н/о н/о -19.0 -21.6 80 -24 -24 1017.5 1010.7 -20.7 -5.6 1
15 27.04 СВ 2 н/о н/о -17.7 -20.6 78 -23 -23 1017.8 1011.0
18 27.04 В 4 н/о н/о -15.2 -18.1 78 -23 -23 1016.9 1010.1 -20.7 -15.0
21 27.04 В 6 н/о н/о -10.2 -12.6 83 -19 -19 1014.9 1008.1
00 28.04 В 4 н/о н/о -6.3 -8.3 86 -13 -13 1013.4 1006.7 -20.7 -6.3
03 28.04 СЗ 10 н/о н/о -7.9 -10.0 85 -18 -18 1015.2 1008.5
06 28.04 СЗ 12 н/о н/о -12.3 -14.5 84 -24 -24 1018.7 1011.9 -20.7 -3.9 6
09 28.04 СЗ 11 н/о н/о -17.9 -20.6 79 -31 -31 опасность
обморожения
1022.1 1015.3 0.2
12 28.04 СЗ 11 н/о {осадки} н/о -19.6 -22.8 76 -34 -34 опасность
обморожения
1024.5 1017.7 -19.8 -3.9 0.2 1
15 28.04 З 7 н/о н/о -18.3 -21.7 75 -29 -29 1027.2 1020.4
18 28.04 СЗ 13 н/о н/о -16.3 -19.5 76 -30 -30 1027.2 1020.4 -19.8 -12.3
21 28.04 СЗ 11 н/о н/о -15.0 -18.4 75 -28 -28 1028.6 1021.7
00 29.04 СЗ 11 н/о н/о -15.4 -19.0 74 -28 -28 1028.8 1021.9 -19.8 -14.6
03 29.04 СЗ 9 н/о н/о -17.9 -21.2 75 -30 -30 1029.9 1023.0
06 29.04 СЗ 8 н/о н/о -20.0 -23.0 77 -33 -33 опасность
обморожения
1029.9 1023.0 -20.5 -12.3 8
09 29.04 СЗ 4 н/о н/о -22.9 -25.9 76 -32 -32 опасность
обморожения
1030.0 1023.1
12 29.04 СЗ 3 н/о н/о -23.1 -26.3 75 -31 -31 опасность
обморожения
1029.7 1022.8 -25.0 -12.3 1
15 29.04 З 2 н/о н/о -18.7 -22.6 71 -23 -23 1028.9 1022.0
18 29.04 З 2 н/о н/о -16.7 -21.1 69 -21 -21 1027.2 1020.3 -25.0 -15.4
21 29.04 ЮЗ 2 н/о н/о -14.3 -19.1 67 -19 -19 1025.5 1018.6
00 30.04 ЮВ 1 н/о н/о -14.9 -18.7 73 -15 -15 1024.4 1017.5 -25.0 -13.3

 

Местоположение метеостанции Baker Lake Climate (Канада): широта 64.32 долгота -96.00 высота над уровнем моря 51 м.

В архиве по умолчанию представлена погода в Baker Lake Climate за последнюю неделю. Архивные данные за месяц целиком и за предыдущие месяцы, начиная с января 2011 года, Вы можете получить, выбрав интересующий диапазон дат из раскрывающегося списка и нажав кнопку "Ввод!".

Внимание! Время в таблицах - всемирное. Для получения местного времени необходимо прибавить поправку, которая в Baker Lake Climate равна -6 ч.

Смотрите также архив погоды в соседних городах и на ближайших метеорологических станциях:

Погода в Baker Lake Airport (Канада) (4 км)
Погода в Back River MAPS (Канада) (197 км)
Погода в Rankin Inlet (Канада) (255 км)
Погода в Dubawnt Lake (Канада) (305 км)
Погода в Robertson Lake (Канада) (316 км)
Погода в Wager Bay (Канада) (353 км)
Погода в Arviat Climate (Канада) (372 км)
Погода в Arviat (Канада) (372 км)
Погода в Arviat Airport (Канада) (372 км)
Погода в Hanbury River ARS (Канада) (454 км)

Пояснения к столбцам:

Ветер - указаны скорость ветра в м/с - средняя за 10 мин, порывы в срок и между сроками (в фигурных скобках) и направление, откуда дует ветер: С - северный, СВ - северо-восточный, В - восточный, ЮВ - юго-восточный, Ю - южный, ЮЗ - юго-западный, З - западный, СЗ - северо-западный.
Видимость - горизонтальная дальность видимости в метрах или километрах. При видимости от 1 до 10 км при отсутствии осадков обычно наблюдается дымка, при ухудшении видимости до 1 км и менее - туман. В сухую погоду видимость может ухудшаться дымом, пылью или мглою.
Явления - указаны атмосферные явления, наблюдавшиеся в срок или в последний час перед сроком; фигурными скобками обозначены явления, наблюдавшиеся между сроками (за 1-3 часа до срока); квадратными скобками обозначены град или гололедные отложения с указанием их диаметра в мм.
Облачность - указаны через наклонную черту общая и нижняя облачность в баллах и высота нижней границы облаков в метрах; квадратными скобками обозначены формы облаков: Ci - перистые, Cs - перисто-слоистые, Cc - перисто-кучевые, Ac - высококучевые, As - высокослоистые, Sc - слоисто-кучевые, Ns - слоисто-дождевые, Cu - кучевые, Cb - кучево-дождевые. Подробнее классификацию облаков см. в Атласе облаков (PDF).
T - Температура воздуха - температура, измеренная на высоте 2 м над землей.
Td - Температура точки росы - температура, при понижении до которой содержащийся в воздухе водяной пар достигнет насыщения.
f - Относительная влажность воздуха - влажноcть воздуха, измеренная на высоте 2 м над землей.
Te - Эффективная температура - температура, которую ощущает одетый по сезону человек в тени. Характеристика душности погоды. При расчете учитывается влияние влажности воздуха и скорости ветра на теплоощущения человека.
Tes - Эффективная температура на солнце - температура, которую ощущает человек, с поправкой на солнечный нагрев. Характеристика знойности погоды. Зависит от высоты солнца над горизонтом, облачности и скорости ветра. Ночью, в пасмурную погоду, а также при ветре 12 м/с и более поправка равна нулю.
P - Атмосферное давление - приведенное к уровню моря атмосферное давление.
Po - Атмосферное давление - измеренное на уровне метеостанции атмосферное давление.
Tmin - Минимальная температура - минимум температуры воздуха на высоте 2 м над землей.
Tmax - Максимальная температура - максимум температуры воздуха на высоте 2 м над землей.
R - Количество осадков - Количество выпавших осадков за период времени, мм. При наведении курсора мыши на число - период времени, за который выпало указанное количество осадков.
R24 - Количество осадков - Количество выпавших осадков за 24 часа, мм.
S - Снежный покров - Высота снежного покрова, см. При наведении курсора мыши на число - состояние снежного покрова и степень покрытия местности в баллах.